This is the latest recevied weather packets stored in our database for station/object JH1CWL-13. If no packets are shown the sender has not sent any weather packets the latest 10 day(s).
| Time | Temp. | Humidity | Pressure | Rain* | Wind** | Luminosity | Snow |
|---|---|---|---|---|---|---|---|
| 1777589395 | 12.22° C | 97% | 1004.1 hPa | 2.79 mm | - | - | - |
| 1777588194 | 12.22° C | 97% | 1004.7 hPa | 1.02 mm | - | - | - |
| 1777586995 | 12.22° C | 97% | 1005.2 hPa | 2.29 mm | - | - | - |
| 1777585796 | 12.22° C | 97% | 1005.8 hPa | 3.56 mm | - | - | - |
| 1777584595 | 12.22° C | 97% | 1006.6 hPa | 3.56 mm | - | - | - |
| 1777583396 | 12.22° C | 97% | 1006.5 hPa | 1.78 mm | - | - | - |
| 1777582194 | 12.22° C | 97% | 1007.2 hPa | 0.76 mm | - | - | - |
| 1777580995 | 11.67° C | 98% | 1007.4 hPa | 1.27 mm | - | - | - |
| 1777579796 | 11.67° C | 98% | 1007.7 hPa | 1.78 mm | - | - | - |
| 1777578596 | 11.67° C | 98% | 1008.3 hPa | 2.29 mm | - | - | - |
| 1777577394 | 11.67° C | 98% | 1009.6 hPa | 2.29 mm | - | - | - |
| 1777576196 | 11.67° C | 98% | 1010.6 hPa | 2.29 mm | - | - | - |
| 1777574994 | 11.67° C | 98% | 1010.5 hPa | 1.78 mm | - | - | - |
| 1777573794 | 11.67° C | 98% | 1010.7 hPa | 0.76 mm | - | - | - |
| 1777572594 | 11.67° C | 98% | 1010.9 hPa | 1.02 mm | - | - | - |
| 1777571394 | 11.67° C | 97% | 1010.6 hPa | 1.02 mm | - | - | - |
| 1777570195 | 11.67° C | 97% | 1010.8 hPa | 1.02 mm | - | - | - |
| 1777568995 | 11.67° C | 97% | 1011.4 hPa | 0.51 mm | - | - | - |
| 1777567795 | 11.67° C | 96% | 1011.7 hPa | 0.51 mm | - | - | - |
| 1777566596 | 11.67° C | 96% | 1012.3 hPa | 0.51 mm | - | - | - |
| 1777565396 | 11.67° C | 95% | 1012.6 hPa | 0.51 mm | - | - | - |
| 1777564195 | 11.67° C | 95% | 1012.8 hPa | 0.76 mm | - | - | - |
| 1777562994 | 12.22° C | 93% | 1013.1 hPa | 0.76 mm | - | - | - |
| 1777561795 | 12.22° C | 92% | 1013.6 hPa | 0.76 mm | - | - | - |
| 1777560595 | 12.22° C | 91% | 1014.2 hPa | 0.25 mm | - | - | - |
* Rain latest hour (hover to see other rain measurements)
** Current wind speed in m/s (hover to see current wind gust speed)